JES3192 SAVT-SABE

Flight info

Callsign JES3192
Flight time 1h 44m
Altitude 37000
Route LOMUS2K LOMUS UT693 BCA UW22 EGANI DCT VALOS VALOS9Q
Aircraft A320/M-SDE3FGHIRWY/LB1

Departure

Time 2026-05-06 19:40
Airport Almirante Marco Andres Zar Airport (SAVT)

Arrival

Time 2026-05-06 21:25
Airport Aeroparque Jorge Newbery (SABE)
Time Latitude Longitude Altitude Speed Heading
2026-05-06 19:18 -43.21010 -65.28324 123 ft 0 kts 342°
2026-05-06 19:33 -43.21023 -65.28318 117 ft 2 kts 338°
2026-05-06 19:33 -43.21037 -65.28310 120 ft 2 kts 328°
2026-05-06 19:33 -43.21039 -65.28309 122 ft 2 kts 326°
2026-05-06 19:34 -43.21050 -65.28293 121 ft 2 kts 273°
2026-05-06 19:34 -43.21048 -65.28273 118 ft 1 kts 249°
2026-05-06 19:34 -43.21047 -65.28266 118 ft 0 kts 248°
2026-05-06 19:37 -43.21051 -65.28279 120 ft 4 kts 248°
2026-05-06 19:37 -43.21072 -65.28322 122 ft 7 kts 217°
2026-05-06 19:37 -43.21132 -65.28321 121 ft 10 kts 162°
2026-05-06 19:37 -43.21179 -65.28329 122 ft 11 kts 211°
2026-05-06 19:38 -43.21227 -65.28459 122 ft 12 kts 249°
2026-05-06 19:38 -43.21262 -65.28563 121 ft 12 kts 228°
2026-05-06 19:38 -43.21344 -65.28566 121 ft 13 kts 163°
2026-05-06 19:38 -43.21419 -65.28509 121 ft 7 kts 142°
2026-05-06 19:39 -43.21446 -65.28467 123 ft 6 kts 90°
2026-05-06 19:39 -43.21443 -65.28454 121 ft 0 kts 69°
2026-05-06 19:39 -43.21442 -65.28452 122 ft 4 kts 69°
2026-05-06 19:39 -43.21348 -65.28122 122 ft 71 kts 69°
2026-05-06 19:40 -43.21104 -65.27245 117 ft 124 kts 69°
2026-05-06 19:40 -43.20741 -65.25982 297 ft 150 kts 66°
2026-05-06 19:40 -43.20328 -65.24714 989 ft 143 kts 52°
2026-05-06 19:40 -43.19551 -65.23930 1507 ft 143 kts 26°
2026-05-06 19:41 -43.18604 -65.23305 1768 ft 157 kts 24°
2026-05-06 19:41 -43.17575 -65.22658 2048 ft 170 kts 27°
2026-05-06 19:41 -43.16481 -65.21889 2278 ft 183 kts 27°
2026-05-06 19:41 -43.15298 -65.21034 2459 ft 202 kts 27°
2026-05-06 19:42 -43.14011 -65.20084 2751 ft 217 kts 28°
2026-05-06 19:42 -43.12644 -65.19067 3115 ft 231 kts 28°
2026-05-06 19:42 -43.11193 -65.17986 3833 ft 239 kts 26°
2026-05-06 19:42 -43.09726 -65.16898 4695 ft 243 kts 26°
2026-05-06 19:43 -43.08197 -65.15773 5309 ft 256 kts 26°
2026-05-06 19:43 -43.06596 -65.14603 5968 ft 266 kts 26°
2026-05-06 19:43 -43.04948 -65.13400 6720 ft 271 kts 26°
2026-05-06 19:43 -43.03273 -65.12167 7493 ft 275 kts 26°
2026-05-06 19:44 -43.01584 -65.10914 8292 ft 277 kts 26°
2026-05-06 19:44 -42.99885 -65.09644 9118 ft 279 kts 26°
2026-05-06 19:44 -42.98184 -65.08361 9953 ft 280 kts 26°
2026-05-06 19:44 -42.96466 -65.07062 10601 ft 287 kts 25°
2026-05-06 19:45 -42.94664 -65.05724 10991 ft 302 kts 25°
2026-05-06 19:45 -42.92743 -65.04324 11171 ft 324 kts 24°
2026-05-06 19:45 -42.91373 -65.03331 11429 ft 332 kts 24°
2026-05-06 19:45 -42.89318 -65.01837 12048 ft 338 kts 24°
2026-05-06 19:46 -42.87236 -65.00313 12726 ft 341 kts 24°
2026-05-06 19:46 -42.85136 -64.98770 13398 ft 345 kts 24°
2026-05-06 19:46 -42.83014 -64.97209 14010 ft 348 kts 24°
2026-05-06 19:46 -42.80876 -64.95634 14581 ft 351 kts 24°
2026-05-06 19:47 -42.78725 -64.94051 15152 ft 353 kts 24°
2026-05-06 19:47 -42.76554 -64.92459 15729 ft 355 kts 24°
2026-05-06 19:47 -42.74372 -64.90862 16305 ft 358 kts 24°
2026-05-06 19:47 -42.72171 -64.89255 16910 ft 360 kts 24°
2026-05-06 19:48 -42.69952 -64.87634 17480 ft 363 kts 24°
2026-05-06 19:48 -42.67719 -64.85995 18035 ft 366 kts 24°
2026-05-06 19:48 -42.65469 -64.84345 18528 ft 369 kts 24°
2026-05-06 19:48 -42.63204 -64.82688 19035 ft 371 kts 24°
2026-05-06 19:49 -42.60921 -64.81024 19541 ft 373 kts 24°
2026-05-06 19:49 -42.58624 -64.79354 20049 ft 376 kts 24°
2026-05-06 19:49 -42.56316 -64.77674 20540 ft 378 kts 24°
2026-05-06 19:49 -42.53991 -64.75982 21008 ft 380 kts 24°
2026-05-06 19:50 -42.51654 -64.74281 21468 ft 383 kts 24°
2026-05-06 19:50 -42.49302 -64.72572 21918 ft 385 kts 24°
2026-05-06 19:50 -42.46933 -64.70852 22394 ft 388 kts 24°
2026-05-06 19:50 -42.44550 -64.69120 22869 ft 390 kts 24°
2026-05-06 19:51 -42.42151 -64.67378 23318 ft 392 kts 24°
2026-05-06 19:51 -42.39738 -64.65631 23705 ft 394 kts 24°
2026-05-06 19:51 -42.37317 -64.63880 24098 ft 396 kts 24°
2026-05-06 19:51 -42.34886 -64.62122 24492 ft 397 kts 24°
2026-05-06 19:52 -42.32448 -64.60362 24889 ft 398 kts 24°
2026-05-06 19:52 -42.29995 -64.58594 25278 ft 400 kts 24°
2026-05-06 19:52 -42.27539 -64.56825 25665 ft 401 kts 24°
2026-05-06 19:52 -42.25074 -64.55049 26043 ft 403 kts 24°
2026-05-06 19:53 -42.22595 -64.53265 26412 ft 404 kts 24°
2026-05-06 19:53 -42.20111 -64.51480 26785 ft 405 kts 24°
2026-05-06 19:53 -42.17620 -64.49691 27151 ft 407 kts 24°
2026-05-06 19:53 -42.15117 -64.47894 27529 ft 408 kts 24°
2026-05-06 19:54 -42.12604 -64.46096 27891 ft 410 kts 24°
2026-05-06 19:54 -42.10081 -64.44296 28262 ft 411 kts 24°
2026-05-06 19:54 -42.07548 -64.42487 28627 ft 413 kts 24°
2026-05-06 19:54 -42.05014 -64.40670 28996 ft 414 kts 25°
2026-05-06 19:55 -42.02469 -64.38846 29362 ft 415 kts 24°
2026-05-06 19:55 -41.99907 -64.37019 29725 ft 417 kts 24°
2026-05-06 19:55 -41.97351 -64.35198 30166 ft 414 kts 24°
2026-05-06 19:55 -41.94815 -64.33394 30622 ft 412 kts 24°
2026-05-06 19:56 -41.92293 -64.31597 31091 ft 409 kts 24°
2026-05-06 19:56 -41.89786 -64.29810 31560 ft 407 kts 24°
2026-05-06 19:56 -41.87292 -64.28036 32035 ft 404 kts 24°
2026-05-06 19:56 -41.84817 -64.26276 32502 ft 402 kts 24°
2026-05-06 19:57 -41.82351 -64.24529 32965 ft 399 kts 24°
2026-05-06 19:57 -41.79899 -64.22790 33423 ft 397 kts 24°
2026-05-06 19:57 -41.77464 -64.21064 33857 ft 395 kts 23°
2026-05-06 19:57 -41.75040 -64.19352 34197 ft 394 kts 23°
2026-05-06 19:58 -41.72618 -64.17640 34486 ft 394 kts 23°
2026-05-06 19:58 -41.70196 -64.15926 34757 ft 394 kts 23°
2026-05-06 19:58 -41.67766 -64.14211 35020 ft 394 kts 22°
2026-05-06 19:58 -41.65337 -64.12503 35265 ft 395 kts 22°
2026-05-06 19:59 -41.62900 -64.10792 35512 ft 395 kts 22°
2026-05-06 19:59 -41.60463 -64.09086 35750 ft 396 kts 22°
2026-05-06 19:59 -41.58024 -64.07377 35987 ft 396 kts 22°
2026-05-06 19:59 -41.55581 -64.05664 36222 ft 397 kts 22°
2026-05-06 20:00 -41.53132 -64.03947 36436 ft 398 kts 22°
2026-05-06 20:00 -41.50680 -64.02227 36649 ft 398 kts 22°
2026-05-06 20:00 -41.45733 -63.98763 36731 ft 405 kts 22°
2026-05-06 20:01 -41.40728 -63.95267 36734 ft 407 kts 22°
2026-05-06 20:01 -41.35721 -63.91762 36730 ft 407 kts 22°
2026-05-06 20:02 -41.30710 -63.88263 36730 ft 407 kts 22°
2026-05-06 20:02 -41.25696 -63.84778 36744 ft 406 kts 22°
2026-05-06 20:03 -41.20687 -63.81299 36748 ft 407 kts 22°
2026-05-06 20:03 -41.15664 -63.77822 36745 ft 407 kts 22°
2026-05-06 20:04 -41.10647 -63.74354 36750 ft 407 kts 21°
2026-05-06 20:04 -41.05631 -63.70879 36742 ft 406 kts 21°
2026-05-06 20:05 -41.00613 -63.67429 36745 ft 406 kts 21°
2026-05-06 20:05 -40.95606 -63.63983 36749 ft 406 kts 21°
2026-05-06 20:06 -40.90597 -63.60544 36744 ft 406 kts 21°
2026-05-06 20:06 -40.85586 -63.57108 36741 ft 406 kts 21°
2026-05-06 20:07 -40.80569 -63.53672 36743 ft 406 kts 21°
2026-05-06 20:07 -40.75552 -63.50240 36740 ft 406 kts 21°
2026-05-06 20:08 -40.70537 -63.46814 36743 ft 406 kts 21°
2026-05-06 20:08 -40.65513 -63.43389 36744 ft 406 kts 21°
2026-05-06 20:09 -40.60489 -63.39970 36739 ft 407 kts 21°
2026-05-06 20:09 -40.55461 -63.36560 36739 ft 407 kts 21°
2026-05-06 20:10 -40.50429 -63.33159 36745 ft 407 kts 21°
2026-05-06 20:10 -40.45400 -63.29752 36746 ft 407 kts 21°
2026-05-06 20:11 -40.40366 -63.26350 36748 ft 407 kts 21°
2026-05-06 20:11 -40.35325 -63.22956 36746 ft 407 kts 21°
2026-05-06 20:12 -40.30280 -63.19565 36735 ft 408 kts 21°
2026-05-06 20:12 -40.25226 -63.16174 36739 ft 409 kts 21°
2026-05-06 20:13 -40.20164 -63.12771 36737 ft 409 kts 21°
2026-05-06 20:13 -40.15093 -63.09377 36743 ft 410 kts 21°
2026-05-06 20:14 -40.10014 -63.05983 36745 ft 410 kts 21°
2026-05-06 20:14 -40.04931 -63.02585 36743 ft 410 kts 21°
2026-05-06 20:15 -39.99847 -62.99191 36738 ft 411 kts 20°
2026-05-06 20:15 -39.94760 -62.95798 36741 ft 411 kts 20°
2026-05-06 20:16 -39.89658 -62.92424 36739 ft 411 kts 20°
2026-05-06 20:16 -39.84554 -62.89033 36743 ft 412 kts 20°
2026-05-06 20:17 -39.79456 -62.85647 36746 ft 411 kts 20°
2026-05-06 20:17 -39.74355 -62.82276 36743 ft 411 kts 20°
2026-05-06 20:18 -39.69257 -62.78920 36744 ft 411 kts 20°
2026-05-06 20:18 -39.64161 -62.75563 36735 ft 411 kts 19°
2026-05-06 20:19 -39.59062 -62.72206 36739 ft 411 kts 19°
2026-05-06 20:19 -39.53961 -62.68858 36734 ft 411 kts 19°
2026-05-06 20:20 -39.48864 -62.65520 36734 ft 411 kts 19°
2026-05-06 20:20 -39.43765 -62.62180 36734 ft 411 kts 19°
2026-05-06 20:21 -39.38658 -62.58845 36726 ft 411 kts 19°
2026-05-06 20:21 -39.33558 -62.55515 36729 ft 411 kts 19°
2026-05-06 20:22 -39.28453 -62.52196 36731 ft 411 kts 18°
2026-05-06 20:22 -39.23351 -62.48892 36726 ft 410 kts 18°
2026-05-06 20:23 -39.18255 -62.45589 36724 ft 410 kts 18°
2026-05-06 20:23 -39.14025 -62.42844 36725 ft 409 kts 18°
2026-05-06 20:24 -39.08945 -62.39558 36723 ft 409 kts 18°
2026-05-06 20:24 -39.03865 -62.36276 36727 ft 408 kts 18°
2026-05-06 20:25 -38.98796 -62.33007 36736 ft 407 kts 18°
2026-05-06 20:25 -38.93737 -62.29757 36746 ft 406 kts 17°
2026-05-06 20:26 -38.88651 -62.26495 36757 ft 405 kts 17°
2026-05-06 20:26 -38.83649 -62.23280 36779 ft 404 kts 17°
2026-05-06 20:27 -38.78593 -62.20045 36783 ft 403 kts 17°
2026-05-06 20:27 -38.73618 -62.16872 36778 ft 401 kts 17°
2026-05-06 20:28 -38.68842 -62.12982 36776 ft 410 kts 25°
2026-05-06 20:28 -38.64174 -62.08720 36774 ft 409 kts 25°
2026-05-06 20:29 -38.59487 -62.04693 36767 ft 393 kts 14°
2026-05-06 20:29 -38.56938 -62.03801 36766 ft 372 kts 358°
2026-05-06 20:29 -38.54378 -62.03589 36759 ft 368 kts 355°
2026-05-06 20:30 -38.46767 -62.03255 36745 ft 365 kts 355°
2026-05-06 20:31 -38.41669 -62.03070 36907 ft 363 kts 355°
2026-05-06 20:31 -38.39182 -62.02985 37235 ft 361 kts 355°
2026-05-06 20:31 -38.36676 -62.02899 37529 ft 360 kts 355°
2026-05-06 20:31 -38.34178 -62.02812 37802 ft 359 kts 355°
2026-05-06 20:32 -38.31686 -62.02728 38047 ft 358 kts 355°
2026-05-06 20:32 -38.29192 -62.02648 38284 ft 358 kts 355°
2026-05-06 20:32 -38.26708 -62.02571 38470 ft 357 kts 355°
2026-05-06 20:32 -38.24226 -62.02495 38630 ft 358 kts 355°
2026-05-06 20:33 -38.21729 -62.02420 38699 ft 359 kts 355°
2026-05-06 20:33 -38.16843 -62.03008 38718 ft 349 kts 337°
2026-05-06 20:34 -38.12353 -62.05380 38715 ft 350 kts 335°
2026-05-06 20:34 -38.07872 -62.07848 38714 ft 351 kts 335°
2026-05-06 20:35 -38.03380 -62.10325 38721 ft 352 kts 335°
2026-05-06 20:35 -37.98882 -62.12813 38714 ft 353 kts 335°
2026-05-06 20:36 -37.94369 -62.15315 38709 ft 354 kts 335°
2026-05-06 20:36 -37.89847 -62.17830 38708 ft 355 kts 335°
2026-05-06 20:37 -37.85312 -62.20345 38705 ft 357 kts 335°
2026-05-06 20:37 -37.80882 -62.22795 38702 ft 358 kts 336°
2026-05-06 20:37 -37.78478 -62.23561 38696 ft 362 kts 352°
2026-05-06 20:38 -37.75937 -62.23658 38698 ft 365 kts 355°
2026-05-06 20:38 -37.70844 -62.23656 38691 ft 367 kts 355°
2026-05-06 20:39 -37.65727 -62.23649 38694 ft 368 kts 355°
2026-05-06 20:39 -37.60602 -62.23654 38695 ft 369 kts 355°
2026-05-06 20:40 -37.55464 -62.23666 38692 ft 369 kts 355°
2026-05-06 20:40 -37.50320 -62.23687 38696 ft 370 kts 355°
2026-05-06 20:41 -37.45189 -62.23713 38704 ft 370 kts 355°
2026-05-06 20:41 -37.40008 -62.23672 38707 ft 374 kts
2026-05-06 20:41 -37.37464 -62.22808 38709 ft 384 kts 13°
2026-05-06 20:42 -37.34975 -62.21565 38703 ft 386 kts 14°
2026-05-06 20:42 -37.30005 -62.19005 38697 ft 386 kts 14°
2026-05-06 20:43 -37.25030 -62.16446 38696 ft 387 kts 16°
2026-05-06 20:43 -37.20304 -62.12954 38691 ft 397 kts 24°
2026-05-06 20:44 -37.15665 -62.09185 38685 ft 398 kts 24°
2026-05-06 20:44 -37.11015 -62.05425 38681 ft 398 kts 24°
2026-05-06 20:45 -37.06346 -62.01674 38683 ft 399 kts 24°
2026-05-06 20:45 -37.01664 -61.97933 38682 ft 399 kts 24°
2026-05-06 20:46 -36.96972 -61.94205 38680 ft 400 kts 24°
2026-05-06 20:46 -36.92271 -61.90485 38680 ft 400 kts 24°
2026-05-06 20:47 -36.87568 -61.86772 38674 ft 400 kts 24°
2026-05-06 20:47 -36.83058 -61.82593 38675 ft 410 kts 33°
2026-05-06 20:48 -36.78862 -61.77762 38669 ft 411 kts 34°
2026-05-06 20:48 -36.74659 -61.72912 38668 ft 411 kts 34°
2026-05-06 20:49 -36.70450 -61.68072 38669 ft 411 kts 34°
2026-05-06 20:49 -36.66240 -61.63255 38678 ft 411 kts 34°
2026-05-06 20:50 -36.62018 -61.58455 38682 ft 410 kts 34°
2026-05-06 20:50 -36.57794 -61.53687 38684 ft 410 kts 33°
2026-05-06 20:51 -36.53551 -61.48945 38680 ft 410 kts 33°
2026-05-06 20:51 -36.49428 -61.44002 38662 ft 417 kts 40°
2026-05-06 20:52 -36.45576 -61.38564 38653 ft 421 kts 41°
2026-05-06 20:52 -36.41746 -61.33051 38649 ft 423 kts 41°
2026-05-06 20:53 -36.37883 -61.27535 38650 ft 424 kts 41°
2026-05-06 20:53 -36.33987 -61.22007 38651 ft 426 kts 41°
2026-05-06 20:54 -36.30075 -61.16470 38656 ft 428 kts 41°
2026-05-06 20:54 -36.26138 -61.10900 38653 ft 431 kts 41°
2026-05-06 20:55 -36.22172 -61.05302 38646 ft 433 kts 41°
2026-05-06 20:55 -36.18179 -60.99681 38641 ft 436 kts 41°
2026-05-06 20:56 -36.14155 -60.94017 38636 ft 439 kts 41°
2026-05-06 20:56 -36.10107 -60.88323 38633 ft 443 kts 41°
2026-05-06 20:57 -36.06002 -60.82579 38627 ft 447 kts 40°
2026-05-06 20:57 -36.01867 -60.76798 38618 ft 451 kts 40°
2026-05-06 20:58 -35.97698 -60.70960 38617 ft 455 kts 40°
2026-05-06 20:58 -35.93476 -60.65065 38438 ft 463 kts 40°
2026-05-06 20:58 -35.91338 -60.62090 37946 ft 463 kts 40°
2026-05-06 20:59 -35.89205 -60.59120 37462 ft 462 kts 40°
2026-05-06 20:59 -35.87077 -60.56155 36944 ft 462 kts 40°
2026-05-06 20:59 -35.84947 -60.53193 36436 ft 461 kts 39°
2026-05-06 20:59 -35.82813 -60.50233 35891 ft 462 kts 39°
2026-05-06 21:00 -35.80681 -60.47279 35419 ft 461 kts 39°
2026-05-06 21:00 -35.78550 -60.44330 34940 ft 460 kts 39°
2026-05-06 21:00 -35.77111 -60.42340 34608 ft 460 kts 39°
2026-05-06 21:00 -35.74301 -60.38448 33947 ft 460 kts 38°
2026-05-06 21:01 -35.72176 -60.35510 33426 ft 459 kts 38°
2026-05-06 21:01 -35.70052 -60.32578 32896 ft 457 kts 38°
2026-05-06 21:01 -35.67946 -60.29671 32401 ft 455 kts 38°
2026-05-06 21:01 -35.66525 -60.27708 32056 ft 453 kts 38°
2026-05-06 21:02 -35.64438 -60.24831 31573 ft 450 kts 38°
2026-05-06 21:02 -35.62361 -60.21972 31076 ft 446 kts 38°
2026-05-06 21:02 -35.60299 -60.19138 30586 ft 443 kts 38°
2026-05-06 21:02 -35.58253 -60.16330 30129 ft 439 kts 38°
2026-05-06 21:03 -35.56220 -60.13544 29653 ft 436 kts 38°
2026-05-06 21:03 -35.54213 -60.10789 29194 ft 431 kts 38°
2026-05-06 21:03 -35.52226 -60.08061 28720 ft 425 kts 38°
2026-05-06 21:03 -35.50286 -60.05402 28306 ft 420 kts 38°
2026-05-06 21:04 -35.48332 -60.02722 27877 ft 415 kts 39°
2026-05-06 21:04 -35.46423 -60.00097 27464 ft 410 kts 39°
2026-05-06 21:04 -35.44533 -59.97501 27047 ft 406 kts 39°
2026-05-06 21:04 -35.42659 -59.94935 26638 ft 402 kts 39°
2026-05-06 21:05 -35.40803 -59.92401 26227 ft 399 kts 39°
2026-05-06 21:05 -35.38952 -59.89883 25818 ft 396 kts 39°
2026-05-06 21:05 -35.37111 -59.87385 25402 ft 394 kts 39°
2026-05-06 21:05 -35.35284 -59.84905 24967 ft 392 kts 39°
2026-05-06 21:06 -35.33458 -59.82427 24546 ft 390 kts 39°
2026-05-06 21:06 -35.31643 -59.79962 24100 ft 389 kts 39°
2026-05-06 21:06 -35.30403 -59.78280 23799 ft 388 kts 39°
2026-05-06 21:06 -35.29836 -59.77511 23668 ft 387 kts 39°
2026-05-06 21:07 -35.28034 -59.75069 23220 ft 386 kts 39°
2026-05-06 21:07 -35.26634 -59.73171 22839 ft 385 kts 39°
2026-05-06 21:07 -35.24849 -59.70746 22382 ft 382 kts 39°
2026-05-06 21:07 -35.23078 -59.68337 21936 ft 379 kts 39°
2026-05-06 21:08 -35.21324 -59.65953 21484 ft 376 kts 39°
2026-05-06 21:08 -35.19580 -59.63591 21051 ft 373 kts 39°
2026-05-06 21:08 -35.17850 -59.61251 20622 ft 369 kts 39°
2026-05-06 21:08 -35.16131 -59.58929 20191 ft 367 kts 39°
2026-05-06 21:09 -35.14424 -59.56627 19750 ft 365 kts 39°
2026-05-06 21:09 -35.12724 -59.54338 19330 ft 363 kts 38°
2026-05-06 21:09 -35.11033 -59.52063 18899 ft 361 kts 38°
2026-05-06 21:09 -35.09349 -59.49795 18470 ft 360 kts 38°
2026-05-06 21:10 -35.07673 -59.47537 18043 ft 358 kts 38°
2026-05-06 21:10 -35.06005 -59.45290 17587 ft 356 kts 38°
2026-05-06 21:10 -35.04347 -59.43057 17157 ft 353 kts 38°
2026-05-06 21:10 -35.02705 -59.40849 16737 ft 350 kts 39°
2026-05-06 21:11 -35.01074 -59.38657 16323 ft 348 kts 39°
2026-05-06 21:11 -34.99448 -59.36475 15911 ft 346 kts 39°
2026-05-06 21:11 -34.97830 -59.34306 15503 ft 345 kts 39°
2026-05-06 21:11 -34.96222 -59.32149 15096 ft 343 kts 39°
2026-05-06 21:12 -34.94617 -59.30003 14688 ft 342 kts 39°
2026-05-06 21:12 -34.93014 -59.27862 14289 ft 341 kts 40°
2026-05-06 21:12 -34.91431 -59.25746 13882 ft 340 kts 40°
2026-05-06 21:12 -34.89823 -59.23599 13474 ft 340 kts 40°
2026-05-06 21:13 -34.88233 -59.21476 13036 ft 339 kts 40°
2026-05-06 21:13 -34.86648 -59.19357 12622 ft 337 kts 40°
2026-05-06 21:13 -34.85072 -59.17249 12226 ft 335 kts 40°
2026-05-06 21:13 -34.83507 -59.15160 11830 ft 334 kts 40°
2026-05-06 21:14 -34.81977 -59.13038 11433 ft 333 kts 43°
2026-05-06 21:14 -34.80504 -59.10872 11090 ft 331 kts 44°
2026-05-06 21:14 -34.79064 -59.08696 10718 ft 329 kts 44°
2026-05-06 21:14 -34.77640 -59.06524 10321 ft 326 kts 44°
2026-05-06 21:15 -34.76253 -59.04407 9966 ft 312 kts 44°
2026-05-06 21:15 -34.74907 -59.02361 9573 ft 301 kts 44°
2026-05-06 21:15 -34.73603 -59.00400 9087 ft 294 kts 43°
2026-05-06 21:15 -34.72337 -58.98504 8722 ft 284 kts 43°
2026-05-06 21:16 -34.71123 -58.96692 8379 ft 273 kts 42°
2026-05-06 21:16 -34.69937 -58.94927 8051 ft 264 kts 41°
2026-05-06 21:16 -34.68778 -58.93210 7734 ft 263 kts 41°
2026-05-06 21:16 -34.67607 -58.91486 7408 ft 265 kts 41°
2026-05-06 21:17 -34.66432 -58.89758 7080 ft 266 kts 41°
2026-05-06 21:17 -34.65261 -58.88028 6824 ft 264 kts 41°
2026-05-06 21:17 -34.64083 -58.86289 6435 ft 268 kts 42°
2026-05-06 21:17 -34.62895 -58.84531 6091 ft 270 kts 42°
2026-05-06 21:18 -34.61705 -58.82766 5743 ft 271 kts 43°
2026-05-06 21:18 -34.60511 -58.80993 5395 ft 271 kts 43°
2026-05-06 21:18 -34.59320 -58.79226 5064 ft 272 kts 43°
2026-05-06 21:18 -34.58119 -58.77443 4728 ft 272 kts 43°
2026-05-06 21:19 -34.56925 -58.75672 4375 ft 272 kts 44°
2026-05-06 21:19 -34.55726 -58.73895 4069 ft 270 kts 44°
2026-05-06 21:19 -34.54544 -58.72141 3738 ft 269 kts 44°
2026-05-06 21:19 -34.53371 -58.70401 3535 ft 263 kts 44°
2026-05-06 21:20 -34.52226 -58.68705 3342 ft 257 kts 44°
2026-05-06 21:20 -34.51133 -58.67082 3202 ft 239 kts 43°
2026-05-06 21:20 -34.50130 -58.65587 3111 ft 220 kts 43°
2026-05-06 21:20 -34.49186 -58.64188 3028 ft 209 kts 42°
2026-05-06 21:21 -34.48290 -58.62866 2973 ft 198 kts 42°
2026-05-06 21:21 -34.47441 -58.61554 2969 ft 199 kts 51°
2026-05-06 21:21 -34.46924 -58.59962 2974 ft 210 kts 71°
2026-05-06 21:21 -34.46946 -58.58137 2979 ft 225 kts 97°
2026-05-06 21:22 -34.47607 -58.56408 2895 ft 226 kts 118°
2026-05-06 21:22 -34.48498 -58.54828 2459 ft 229 kts 118°
2026-05-06 21:22 -34.49393 -58.53253 2101 ft 222 kts 118°
2026-05-06 21:22 -34.50234 -58.51762 1821 ft 205 kts 118°
2026-05-06 21:23 -34.51002 -58.50392 1551 ft 189 kts 117°
2026-05-06 21:23 -34.51718 -58.49112 1358 ft 176 kts 117°
2026-05-06 21:23 -34.52375 -58.47937 1122 ft 163 kts 118°
2026-05-06 21:23 -34.52993 -58.46823 913 ft 154 kts 117°
2026-05-06 21:24 -34.53589 -58.45764 724 ft 150 kts 121°
2026-05-06 21:24 -34.54150 -58.44741 497 ft 141 kts 122°
2026-05-06 21:24 -34.54697 -58.43772 295 ft 137 kts 122°
2026-05-06 21:24 -34.55226 -58.42819 117 ft 136 kts 124°
2026-05-06 21:25 -34.55737 -58.41904 24 ft 112 kts 125°
2026-05-06 21:25 -34.56006 -58.41430 23 ft 30 kts 124°
2026-05-06 21:25 -34.56119 -58.41226 25 ft 29 kts 124°
2026-05-06 21:25 -34.56191 -58.41092 25 ft 13 kts 115°
2026-05-06 21:26 -34.56158 -58.41000 24 ft 10 kts 40°
2026-05-06 21:26 -34.56097 -58.41023 25 ft 11 kts 309°
2026-05-06 21:26 -34.56058 -58.41087 25 ft 10 kts 306°
2026-05-06 21:26 -34.56010 -58.41162 24 ft 12 kts 307°
2026-05-06 21:27 -34.55958 -58.41247 26 ft 13 kts 307°
2026-05-06 21:27 -34.55919 -58.41303 24 ft 7 kts 331°
2026-05-06 21:27 -34.55877 -58.41302 24 ft 6 kts
2026-05-06 21:27 -34.55831 -58.41304 24 ft 8 kts 349°
2026-05-06 21:28 -34.55789 -58.41290 24 ft 3 kts 33°
2026-05-06 21:28 -34.55772 -58.41277 25 ft 0 kts 34°